When you browse on this site, cookies collect data to enhance your experience and personalize the content and advertising you see.
Visit our Privacy Policy to learn more. By continuing to use the site, you agree to this use of cookies and data.
  • In Portugal
  • List of Countries
  • For 7 days
  • Water Temperature
  • Satellite Maps
  • Weather Map
  • Weather Widgets
  • user-avatar
    Login

    Hourly Weather Akwizgran

    Today, 26 March, Tuesday

    Time Temperature Precipitation Wind Pressure Humidity
    00:00 +1°C° 0 mm 4 mps 741 mmHg 85%
    01:00 +2°C° 0 mm 2 mps 741 mmHg 89%
    02:00 +2°C° 0 mm 2 mps 741 mmHg 91%
    03:00 0°C° 0 mm 3 mps 742 mmHg 92%
    04:00 0°C° 0 mm 3 mps 742 mmHg 94%
    05:00 0°C° 0 mm 3 mps 742 mmHg 91%
    06:00 -1°C° 0 mm 4 mps 743 mmHg 89%
    07:00 0°C° 0 mm 4 mps 743 mmHg 85%
    08:00 +1°C° 0 mm 5 mps 743 mmHg 78%
    09:00 +2°C° 0 mm 5 mps 743 mmHg 70%
    10:00 +3°C° 0 mm 6 mps 742 mmHg 63%
    11:00 +4°C° 0 mm 7 mps 742 mmHg 61%
    12:00 +4°C° 0 mm 7 mps 741 mmHg 59%
    13:00 +4°C° 0 mm 8 mps 741 mmHg 58%
    14:00 +3°C° 0.2 mm 9 mps 741 mmHg 60%
    15:00 +3°C° 0.2 mm 9 mps 740 mmHg 62%
    16:00 +2°C° 0.2 mm 10 mps 740 mmHg 64%
    17:00 +2°C° 0.5 mm 10 mps 740 mmHg 67%
    18:00 +1°C° 0.5 mm 9 mps 741 mmHg 70%
    19:00 0°C° 0.5 mm 9 mps 741 mmHg 74%
    20:00 -1°C° 0.2 mm 7 mps 742 mmHg 73%
    21:00 -1°C° 0.2 mm 6 mps 742 mmHg 73%
    22:00 -1°C° 0.2 mm 4 mps 743 mmHg 73%
    23:00 -2°C° 0 mm 4 mps 744 mmHg 74%

    Tomorrow, 27 March, Wednesday

    Time Temperature Precipitation Wind Pressure Humidity
    00:00 -3°C° 0 mm 4 mps 744 mmHg 75%
    01:00 -3°C° 0 mm 4 mps 745 mmHg 76%
    02:00 -3°C° 0 mm 4 mps 745 mmHg 78%
    03:00 -2°C° 0 mm 3 mps 746 mmHg 80%
    04:00 -4°C° 0 mm 3 mps 746 mmHg 82%
    05:00 -2°C° 0 mm 3 mps 747 mmHg 81%
    06:00 -2°C° 0 mm 3 mps 747 mmHg 80%
    07:00 -1°C° 0 mm 3 mps 748 mmHg 79%
    08:00 0°C° 0 mm 3 mps 748 mmHg 71%
    09:00 +1°C° 0 mm 4 mps 748 mmHg 64%
    10:00 +3°C° 0 mm 4 mps 749 mmHg 57%
    11:00 +4°C° 0 mm 4 mps 749 mmHg 52%
    12:00 +5°C° 0 mm 4 mps 749 mmHg 46%
    13:00 +6°C° 0 mm 4 mps 749 mmHg 40%
    14:00 +6°C° 0 mm 4 mps 749 mmHg 41%
    15:00 +6°C° 0 mm 4 mps 748 mmHg 41%
    16:00 +6°C° 0 mm 4 mps 748 mmHg 41%
    17:00 +5°C° 0 mm 3 mps 748 mmHg 48%
    18:00 +5°C° 0 mm 2 mps 748 mmHg 54%
    19:00 +4°C° 0 mm 2 mps 749 mmHg 61%
    20:00 +4°C° 0 mm 2 mps 749 mmHg 64%
    21:00 +4°C° 0 mm 2 mps 749 mmHg 66%
    22:00 +5°C° 0 mm 2 mps 749 mmHg 69%
    23:00 +4°C° 0.1 mm 3 mps 749 mmHg 75%

    Day after tomorrow, 28 March, Thursday

    Time Temperature Precipitation Wind Pressure Humidity
    00:00 +4°C° 0.1 mm 3 mps 749 mmHg 82%
    01:00 +4°C° 0.1 mm 3 mps 749 mmHg 88%
    02:00 +4°C° 0.6 mm 3 mps 749 mmHg 90%
    03:00 +4°C° 0.6 mm 4 mps 749 mmHg 91%
    04:00 +4°C° 0.6 mm 4 mps 749 mmHg 93%
    05:00 +4°C° 0.3 mm 4 mps 749 mmHg 93%
    06:00 +4°C° 0.3 mm 4 mps 749 mmHg 93%
    07:00 +4°C° 0.3 mm 4 mps 749 mmHg 92%
    08:00 +5°C° 0.1 mm 3 mps 749 mmHg 90%
    09:00 +7°C° 0.1 mm 3 mps 749 mmHg 88%
    10:00 +7°C° 0.1 mm 3 mps 750 mmHg 85%
    11:00 +8°C° 0.2 mm 3 mps 750 mmHg 79%
    12:00 +9°C° 0.2 mm 3 mps 750 mmHg 72%
    13:00 +10°C° 0.2 mm 3 mps 750 mmHg 65%
    14:00 +10°C° 0.1 mm 3 mps 751 mmHg 65%
    15:00 +10°C° 0.1 mm 2 mps 751 mmHg 66%
    16:00 +10°C° 0.1 mm 2 mps 751 mmHg 66%
    17:00 +9°C° 0.1 mm 2 mps 751 mmHg 72%
    18:00 +8°C° 0.1 mm 2 mps 751 mmHg 78%
    19:00 +8°C° 0.1 mm 1 mps 752 mmHg 84%
    20:00 +7°C° 0 mm 1 mps 752 mmHg 86%
    21:00 +6°C° 0 mm 0 mps 753 mmHg 87%
    22:00 +5°C° 0 mm 0 mps 753 mmHg 89%
    23:00 +5°C° 0 mm 0 mps 753 mmHg 90%

    29 March, Friday

    Time Temperature Precipitation Wind Pressure Humidity
    00:00 +5°C° 0 mm 0 mps 753 mmHg 90%
    01:00 +4°C° 0 mm 0 mps 753 mmHg 90%
    02:00 +5°C° 0 mm 1 mps 753 mmHg 91%
    03:00 +5°C° 0 mm 1 mps 753 mmHg 92%
    04:00 +4°C° 0 mm 1 mps 753 mmHg 93%
    05:00 +5°C° 0 mm 1 mps 753 mmHg 91%
    06:00 +5°C° 0 mm 1 mps 753 mmHg 90%
    07:00 +5°C° 0 mm 2 mps 754 mmHg 88%
    08:00 +7°C° 0 mm 2 mps 753 mmHg 81%
    09:00 +8°C° 0 mm 2 mps 753 mmHg 74%
    10:00 +10°C° 0 mm 3 mps 753 mmHg 67%
    11:00 +11°C° 0 mm 3 mps 753 mmHg 62%
    12:00 +12°C° 0 mm 3 mps 753 mmHg 58%
    13:00 +13°C° 0 mm 3 mps 752 mmHg 54%
    14:00 +13°C° 0 mm 3 mps 752 mmHg 54%
    15:00 +13°C° 0 mm 3 mps 751 mmHg 55%
    16:00 +13°C° 0 mm 3 mps 751 mmHg 56%
    17:00 +12°C° 0 mm 3 mps 751 mmHg 62%
    18:00 +12°C° 0 mm 2 mps 751 mmHg 69%
    19:00 +9°C° 0 mm 2 mps 751 mmHg 75%
    20:00 +9°C° 0 mm 2 mps 751 mmHg 78%
    21:00 +10°C° 0 mm 1 mps 751 mmHg 81%
    22:00 +9°C° 0 mm 1 mps 751 mmHg 84%
    23:00 +9°C° 0 mm 1 mps 751 mmHg 86%

    30 March, Saturday

    Time Temperature Precipitation Wind Pressure Humidity
    00:00 +8°C° 0 mm 1 mps 751 mmHg 88%
    01:00 +8°C° 0 mm 1 mps 751 mmHg 90%
    02:00 +7°C° 0 mm 1 mps 750 mmHg 91%
    03:00 +7°C° 0 mm 1 mps 750 mmHg 91%
    04:00 +7°C° 0 mm 1 mps 750 mmHg 92%
    05:00 +7°C° 0 mm 1 mps 750 mmHg 90%
    06:00 +8°C° 0 mm 1 mps 750 mmHg 88%
    07:00 +8°C° 0 mm 1 mps 750 mmHg 87%
    08:00 +10°C° 0 mm 1 mps 750 mmHg 79%
    09:00 +12°C° 0 mm 1 mps 750 mmHg 72%
    10:00 +14°C° 0 mm 2 mps 749 mmHg 65%
    11:00 +15°C° 0 mm 2 mps 749 mmHg 60%
    12:00 +15°C° 0 mm 2 mps 748 mmHg 55%
    13:00 +16°C° 0 mm 2 mps 748 mmHg 50%
    14:00 +17°C° 0 mm 2 mps 747 mmHg 49%
    15:00 +17°C° 0 mm 2 mps 747 mmHg 48%
    16:00 +17°C° 0 mm 2 mps 746 mmHg 47%
    17:00 +15°C° 0 mm 1 mps 746 mmHg 52%
    18:00 +14°C° 0 mm 1 mps 746 mmHg 57%
    19:00 +12°C° 0 mm 0 mps 745 mmHg 62%
    20:00 +12°C° 0 mm 1 mps 745 mmHg 63%
    21:00 +11°C° 0 mm 1 mps 745 mmHg 65%
    22:00 +11°C° 0 mm 1 mps 745 mmHg 66%
    23:00 +10°C° 0 mm 1 mps 745 mmHg 67%

    31 March, Sunday

    Time Temperature Precipitation Wind Pressure Humidity
    00:00 +10°C° 0 mm 1 mps 744 mmHg 67%
    01:00 +8°C° 0 mm 2 mps 744 mmHg 68%
    02:00 +8°C° 0 mm 2 mps 744 mmHg 69%
    03:00 +8°C° 0 mm 2 mps 743 mmHg 70%
    04:00 +7°C° 0 mm 2 mps 743 mmHg 70%
    05:00 +8°C° 0 mm 2 mps 743 mmHg 70%
    06:00 +8°C° 0 mm 2 mps 742 mmHg 69%
    07:00 +9°C° 0 mm 2 mps 742 mmHg 68%
    08:00 +10°C° 0 mm 3 mps 742 mmHg 63%
    09:00 +12°C° 0 mm 3 mps 742 mmHg 57%
    10:00 +14°C° 0 mm 3 mps 742 mmHg 51%
    11:00 +16°C° 0 mm 3 mps 742 mmHg 48%
    12:00 +17°C° 0 mm 4 mps 741 mmHg 45%
    13:00 +17°C° 0 mm 4 mps 741 mmHg 42%
    14:00 +17°C° 0 mm 4 mps 741 mmHg 45%
    15:00 +15°C° 0 mm 4 mps 741 mmHg 48%
    16:00 +15°C° 0 mm 5 mps 741 mmHg 50%
    17:00 +13°C° 0.1 mm 5 mps 742 mmHg 60%
    18:00 +9°C° 0.1 mm 5 mps 742 mmHg 69%
    19:00 +7°C° 0.1 mm 6 mps 743 mmHg 79%
    20:00 +7°C° 0 mm 6 mps 743 mmHg 77%
    21:00 +5°C° 0 mm 6 mps 744 mmHg 75%
    22:00 +5°C° 0 mm 5 mps 744 mmHg 73%
    23:00 +3°C° 0 mm 5 mps 744 mmHg 74%
    Show more